Tracking 19562 objects as of 21-Mar-2019
HD Live streaming from Space Station
objects crossing your sky now

GALAXY 28 (IA 8)

Track GALAXY 28 (IA 8) now!
GALAXY 28 (IA 8) is classified as:


NORAD ID: 28702
Int'l Code: 2005-022A
Perigee: 35,788.0 km
Apogee: 35,800.5 km
Inclination: 0.0 °
Period: 1,436.1 minutes
Semi major axis: 42165 km
RCS: 16.7785 m2 (large)
Launch date: June 23, 2005
Source: International Telecommunications Satellite Organization (ITSO)
Launch site: SEA LAUNCH (SEAL)

28 C-band, 36 Ku-band, 24 Ka-band; video and data transmissions to all countries in North and South America.
aabbcc
Your satellite tracking list
Your tracking list is empty




NASA's NSSDC Master Catalog

Two Line Element Set (TLE):
1 28702U 05022A   19080.44043140 -.00000211  00000-0  00000+0 0  9990
2 28702   0.0021 189.5207 0001480 249.5361 169.1189  1.00270112 50306
Source of the keplerian elements: AFSPC